Weather History for Culdrose, United Kingdom

Change the Weather History Date:

Friday, September 21, 2012

  Actual Average Record
Temperature  
Mean Temperature 54 °F -  
Max Temperature 61 °F 58 °F 71 °F (2006)
Min Temperature 47 °F 49 °F 47 °F (2012)
Degree Days  
Heating Degree Days 11    
Growing Degree Days 4 (Base 50)    
Moisture  
Dew Point 49 °F    
Average Humidity 81    
Maximum Humidity 94    
Minimum Humidity 55    
Precipitation  
Precipitation 0.00 in - - ()
Sea Level Pressure  
Sea Level Pressure 30.01 in    
Wind  
Wind Speed 7 mph ()    
Max Wind Speed 17 mph    
Max Gust Speed -    
Visibility 8.8 miles    
Events Rain    
Averages and records for this station are not official NWS values.
T = Trace of Precipitation, MM = Missing Value Source: Averaged Metar Reports

Daily Weather History Graph

Daily Weather History Graph

Search for Another Location

Airport:

Trip Planner

Search our weather history database for the weather conditions in past years. The results will help you decide how hot, cold, wet, or windy it might be!

Date:

Astronomy

Sep. 21, 2012 Rise Set
Actual Time 7:06 AM BST 7:20 PM BST
Civil Twilight 6:33 AM BST 7:52 PM BST
Nautical Twilight 5:55 AM BST 8:31 PM BST
Astronomical Twilight 5:15 AM BST 9:10 PM BST
Moon 1:50 PM BST (9/21) 10:30 PM BST (9/21)
Length of Visible Light 13h 18m
Length of Day
12h 14m
Waxing Crescent, 35% of the Moon is Illuminated
Sep 21
Waxing Crescent
Sep 22
First Quarter
Sep 30
Full
Oct 8
Last Quarter
Oct 15
New

Hourly Weather History & Observations

Time (BST) Temp. Dew Point Humidity Pressure Visibility Wind Dir Wind Speed Gust Speed Precip Events Conditions
12:50 AM 49 °F 46 °F 86% 30.07 in 16 mi ENE 6.9 mph - -   Overcast
12:50 AM 48.2 °F 46.4 °F 93% 30.06 in 6.2 mi ENE 6.9 mph - N/A   Overcast
1:50 AM 48.2 °F 46.4 °F 93% 30.06 in 6.2 mi East 5.8 mph - N/A   Mostly Cloudy
2:50 AM 48.2 °F 46.4 °F 93% 30.04 in 6.2 mi East 5.8 mph - N/A   Mostly Cloudy
3:50 AM 48 °F 46 °F 92% 30.03 in 16 mi ESE 6.9 mph - -   Overcast
3:50 AM 48.2 °F 46.4 °F 93% 30.01 in 6.2 mi ESE 6.9 mph - N/A   Overcast
4:50 AM 48.2 °F 46.4 °F 93% 30.01 in 6.2 mi East 6.9 mph - N/A   Overcast
5:50 AM 48.2 °F 46.4 °F 93% 30.01 in - ENE 6.9 mph - N/A   Clear
6:50 AM 50 °F 46 °F 83% 30.00 in 16 mi ENE 5.8 mph - -   Overcast
6:50 AM 50.0 °F 46.4 °F 87% 29.98 in - ENE 5.8 mph - N/A   Clear
7:50 AM 50.0 °F 46.4 °F 87% 29.98 in 6.2 mi ENE 5.8 mph - N/A   Mostly Cloudy
8:50 AM 51.8 °F 48.2 °F 88% 30.01 in 6.2 mi ENE 5.8 mph - N/A   Partly Cloudy
9:50 AM 56 °F 51 °F 78% 30.02 in 16 mi ENE 3.5 mph - -   Scattered Clouds
9:50 AM 55.4 °F 51.8 °F 88% 30.01 in 6.2 mi ENE 3.5 mph - N/A   Mostly Cloudy
10:50 AM 57.2 °F 50.0 °F 77% 30.01 in - East 2.3 mph - N/A   Clear
11:50 AM 59.0 °F 50.0 °F 72% 30.01 in 6.2 mi NNE 1.2 mph - N/A   Mostly Cloudy
12:50 PM 59 °F 47 °F 55% 30.01 in 16 mi NNW 6.9 mph - -   Partly Cloudy
12:50 PM 59.0 °F 46.4 °F 63% 30.01 in 6.2 mi NNW 6.9 mph - N/A   Mostly Cloudy
1:50 PM 59.0 °F 48.2 °F 67% 29.98 in 6.2 mi North 5.8 mph - N/A   Scattered Clouds
2:50 PM 59.0 °F 50.0 °F 72% 29.98 in 6.2 mi North 6.9 mph - N/A   Scattered Clouds
3:50 PM 61 °F 50 °F 57% 29.99 in 16 mi NNW 6.9 mph - -   Mostly Cloudy
3:50 PM 60.8 °F 50.0 °F 68% 29.98 in 6.2 mi NNW 6.9 mph - N/A   Scattered Clouds
4:50 PM 60.8 °F 50.0 °F 68% 29.98 in 6.2 mi NNW 11.5 mph - N/A   Scattered Clouds
5:50 PM 59.0 °F 50.0 °F 72% 29.98 in 6.2 mi North 15.0 mph - N/A   Scattered Clouds
6:50 PM 58 °F 51 °F 72% 30.01 in 12 mi North 12.7 mph - -   Partly Cloudy
6:50 PM 59.0 °F 51.8 °F 77% 30.01 in 6.2 mi North 12.7 mph - N/A   Scattered Clouds
7:50 PM 55.4 °F 53.6 °F 94% 30.01 in 6.2 mi NNE 17.3 mph - N/A Rain Light Rain Showers
8:50 PM 55.4 °F 51.8 °F 88% 30.04 in 6.2 mi North 12.7 mph - N/A   Scattered Clouds
9:50 PM 53 °F 50 °F 87% 30.05 in 16 mi North 9.2 mph - - Rain Light Rain
9:50 PM 53.6 °F 50.0 °F 88% 30.04 in 6.2 mi North 9.2 mph - N/A   Scattered Clouds
10:50 PM 51.8 °F 48.2 °F 88% 30.04 in 6.2 mi NNE 12.7 mph - N/A   Scattered Clouds
11:50 PM 50.0 °F 46.4 °F 87% 30.04 in 6.2 mi NNE 12.7 mph - N/A   Scattered Clouds